When you browse on this site, cookies collect data to enhance your experience and personalize the content and advertising you see.
Visit our Privacy Policy to learn more. By continuing to use the site, you agree to this use of cookies and data.
  • In France
  • List of Countries
  • For 7 days
  • Water Temperature
  • Satellite Maps
  • Weather Map
  • Weather Widgets
  • user-avatar
    Login

    Hourly Weather Tuokou

    Today, 18 July, Thursday

    Time Temperature Precipitation Wind Pressure Humidity
    00:00 +25°C° 0 mm 0 mps 730 mmHg 92%
    01:00 +25°C° 0 mm 0 mps 730 mmHg 92%
    02:00 +25°C° 0 mm 0 mps 730 mmHg 92%
    03:00 +25°C° 0 mm 0 mps 730 mmHg 93%
    04:00 +24°C° 0 mm 0 mps 730 mmHg 94%
    05:00 +25°C° 0 mm 0 mps 730 mmHg 93%
    06:00 +26°C° 0 mm 0 mps 730 mmHg 92%
    07:00 +27°C° 0 mm 0 mps 730 mmHg 92%
    08:00 +29°C° 1.3 mm 0 mps 730 mmHg 88%
    09:00 +32°C° 1.3 mm 1 mps 730 mmHg 83%
    10:00 +33°C° 1.3 mm 1 mps 730 mmHg 79%
    11:00 +34°C° 0.5 mm 1 mps 729 mmHg 73%
    12:00 +36°C° 0.5 mm 1 mps 729 mmHg 66%
    13:00 +37°C° 0 mm 1 mps 729 mmHg 56%
    14:00 +37°C° 0 mm 1 mps 729 mmHg 57%
    15:00 +36°C° 0 mm 1 mps 728 mmHg 59%
    16:00 +37°C° 0 mm 2 mps 728 mmHg 60%
    17:00 +34°C° 0.4 mm 1 mps 728 mmHg 70%
    18:00 +32°C° 0.4 mm 1 mps 728 mmHg 79%
    19:00 +30°C° 0.4 mm 1 mps 729 mmHg 88%
    20:00 +29°C° 0.6 mm 1 mps 729 mmHg 89%
    21:00 +29°C° 0.6 mm 1 mps 730 mmHg 90%
    22:00 +26°C° 0.6 mm 0 mps 730 mmHg 91%
    23:00 +26°C° 0.6 mm 0 mps 730 mmHg 92%

    Tomorrow, 19 July, Friday

    Time Temperature Precipitation Wind Pressure Humidity
    00:00 +26°C° 0.6 mm 0 mps 730 mmHg 94%
    01:00 +25°C° 0.6 mm 0 mps 730 mmHg 95%
    02:00 +27°C° 0 mm 1 mps 730 mmHg 96%
    03:00 +27°C° 0 mm 1 mps 730 mmHg 97%
    04:00 +27°C° 0 mm 1 mps 730 mmHg 98%
    05:00 +27°C° 0 mm 1 mps 730 mmHg 97%
    06:00 +28°C° 0 mm 1 mps 731 mmHg 96%
    07:00 +28°C° 0 mm 1 mps 731 mmHg 95%
    08:00 +29°C° 0 mm 1 mps 731 mmHg 91%
    09:00 +30°C° 0 mm 2 mps 731 mmHg 86%
    10:00 +30°C° 0 mm 2 mps 731 mmHg 82%
    11:00 +32°C° 0.1 mm 2 mps 731 mmHg 76%
    12:00 +35°C° 0.1 mm 2 mps 730 mmHg 69%
    13:00 +36°C° 0.1 mm 2 mps 730 mmHg 63%
    14:00 +35°C° 0.5 mm 1 mps 730 mmHg 66%
    15:00 +35°C° 0.5 mm 1 mps 729 mmHg 69%
    16:00 +34°C° 0.5 mm 1 mps 729 mmHg 73%
    17:00 +33°C° 2 mm 1 mps 729 mmHg 79%
    18:00 +31°C° 2 mm 1 mps 730 mmHg 84%
    19:00 +29°C° 2 mm 1 mps 730 mmHg 90%
    20:00 +27°C° 0.4 mm 0 mps 730 mmHg 91%
    21:00 +27°C° 0.4 mm 0 mps 731 mmHg 92%
    22:00 +26°C° 0.4 mm 0 mps 731 mmHg 93%
    23:00 +26°C° 0.1 mm 0 mps 731 mmHg 94%

    Day after tomorrow, 20 July, Saturday

    Time Temperature Precipitation Wind Pressure Humidity
    00:00 +26°C° 0.1 mm 0 mps 731 mmHg 94%
    01:00 +25°C° 0.1 mm 0 mps 731 mmHg 95%
    02:00 +25°C° 0 mm 0 mps 731 mmHg 96%
    03:00 +25°C° 0 mm 0 mps 730 mmHg 96%
    04:00 +25°C° 0 mm 0 mps 730 mmHg 97%
    05:00 +25°C° 0 mm 0 mps 731 mmHg 95%
    06:00 +26°C° 0 mm 0 mps 731 mmHg 94%
    07:00 +27°C° 0 mm 0 mps 732 mmHg 93%
    08:00 +29°C° 0 mm 0 mps 732 mmHg 85%
    09:00 +31°C° 0 mm 0 mps 732 mmHg 76%
    10:00 +33°C° 0 mm 0 mps 732 mmHg 68%
    11:00 +34°C° 0 mm 0 mps 731 mmHg 64%
    12:00 +37°C° 0 mm 1 mps 731 mmHg 59%
    13:00 +39°C° 0 mm 1 mps 730 mmHg 55%
    14:00 +37°C° 0.3 mm 1 mps 730 mmHg 57%
    15:00 +37°C° 0.3 mm 1 mps 729 mmHg 59%
    16:00 +36°C° 0.3 mm 1 mps 729 mmHg 61%
    17:00 +35°C° 0.3 mm 1 mps 729 mmHg 69%
    18:00 +31°C° 0.3 mm 0 mps 729 mmHg 77%
    19:00 +29°C° 0.3 mm 0 mps 729 mmHg 85%
    20:00 +28°C° 0.4 mm 0 mps 730 mmHg 86%
    21:00 +28°C° 0.4 mm 0 mps 730 mmHg 88%
    22:00 +29°C° 0.4 mm 1 mps 730 mmHg 90%
    23:00 +29°C° 0 mm 1 mps 730 mmHg 91%

    21 July, Sunday

    Time Temperature Precipitation Wind Pressure Humidity
    00:00 +28°C° 0 mm 1 mps 730 mmHg 92%
    01:00 +28°C° 0 mm 1 mps 730 mmHg 93%
    02:00 +28°C° 0 mm 1 mps 730 mmHg 94%
    03:00 +27°C° 0 mm 1 mps 730 mmHg 95%
    04:00 +27°C° 0 mm 1 mps 730 mmHg 95%
    05:00 +28°C° 0 mm 1 mps 730 mmHg 94%
    06:00 +29°C° 0 mm 1 mps 730 mmHg 92%
    07:00 +29°C° 0 mm 1 mps 731 mmHg 90%
    08:00 +31°C° 0.2 mm 1 mps 731 mmHg 82%
    09:00 +34°C° 0.2 mm 2 mps 731 mmHg 74%
    10:00 +35°C° 0.2 mm 3 mps 731 mmHg 66%
    11:00 +36°C° 0 mm 3 mps 731 mmHg 63%
    12:00 +37°C° 0 mm 3 mps 730 mmHg 59%
    13:00 +38°C° 0 mm 4 mps 730 mmHg 56%
    14:00 +38°C° 0 mm 4 mps 729 mmHg 57%
    15:00 +38°C° 0 mm 4 mps 729 mmHg 59%
    16:00 +37°C° 0 mm 4 mps 728 mmHg 60%
    17:00 +36°C° 0 mm 3 mps 728 mmHg 65%
    18:00 +34°C° 0 mm 3 mps 729 mmHg 71%
    19:00 +31°C° 0 mm 3 mps 729 mmHg 76%
    20:00 +30°C° 0 mm 2 mps 730 mmHg 78%
    21:00 +30°C° 0 mm 2 mps 730 mmHg 81%
    22:00 +29°C° 0 mm 2 mps 731 mmHg 83%
    23:00 +29°C° 0 mm 2 mps 730 mmHg 85%

    22 July, Monday

    Time Temperature Precipitation Wind Pressure Humidity
    00:00 +29°C° 0 mm 2 mps 730 mmHg 87%
    01:00 +28°C° 0 mm 1 mps 730 mmHg 88%
    02:00 +28°C° 0 mm 1 mps 730 mmHg 89%
    03:00 +28°C° 0 mm 1 mps 730 mmHg 90%
    04:00 +28°C° 0 mm 1 mps 729 mmHg 91%
    05:00 +28°C° 0 mm 2 mps 730 mmHg 88%
    06:00 +29°C° 0 mm 2 mps 730 mmHg 84%
    07:00 +30°C° 0 mm 2 mps 730 mmHg 81%
    08:00 +33°C° 0 mm 3 mps 730 mmHg 75%
    09:00 +34°C° 0 mm 3 mps 730 mmHg 68%
    10:00 +36°C° 0 mm 4 mps 730 mmHg 62%
    11:00 +36°C° 0 mm 4 mps 730 mmHg 60%
    12:00 +37°C° 0 mm 4 mps 729 mmHg 58%
    13:00 +37°C° 0 mm 4 mps 729 mmHg 57%
    14:00 +37°C° 0 mm 4 mps 728 mmHg 57%
    15:00 +37°C° 0 mm 3 mps 728 mmHg 57%
    16:00 +37°C° 0 mm 3 mps 727 mmHg 58%
    17:00 +36°C° 0 mm 3 mps 728 mmHg 64%
    18:00 +34°C° 0 mm 3 mps 728 mmHg 70%
    19:00 +31°C° 0 mm 3 mps 729 mmHg 77%
    20:00 +31°C° 0 mm 2 mps 729 mmHg 78%
    21:00 +30°C° 0 mm 2 mps 729 mmHg 78%
    22:00 +29°C° 0 mm 2 mps 730 mmHg 79%
    23:00 +29°C° 0 mm 2 mps 730 mmHg 81%

    23 July, Tuesday

    Time Temperature Precipitation Wind Pressure Humidity
    00:00 +29°C° 0 mm 2 mps 729 mmHg 83%
    01:00 +28°C° 0 mm 2 mps 729 mmHg 85%
    02:00 +28°C° 0 mm 1 mps 729 mmHg 87%
    03:00 +27°C° 0 mm 1 mps 729 mmHg 89%
    04:00 +27°C° 0 mm 1 mps 729 mmHg 91%
    05:00 +28°C° 0 mm 1 mps 729 mmHg 87%
    06:00 +29°C° 0 mm 2 mps 729 mmHg 84%
    07:00 +30°C° 0 mm 2 mps 730 mmHg 81%
    08:00 +31°C° 0 mm 2 mps 730 mmHg 75%
    09:00 +34°C° 0 mm 3 mps 730 mmHg 69%
    10:00 +35°C° 0 mm 3 mps 730 mmHg 63%
    11:00 +36°C° 0 mm 3 mps 730 mmHg 60%
    12:00 +37°C° 0 mm 3 mps 729 mmHg 58%
    13:00 +38°C° 0 mm 3 mps 729 mmHg 55%
    14:00 +38°C° 0 mm 3 mps 728 mmHg 56%
    15:00 +38°C° 0 mm 3 mps 728 mmHg 56%
    16:00 +38°C° 0 mm 3 mps 728 mmHg 57%
    17:00 +36°C° 0 mm 3 mps 728 mmHg 63%
    18:00 +34°C° 0 mm 3 mps 728 mmHg 69%
    19:00 +31°C° 0 mm 3 mps 729 mmHg 76%
    20:00 +30°C° 0 mm 3 mps 729 mmHg 77%
    21:00 +30°C° 0 mm 3 mps 730 mmHg 79%
    22:00 +29°C° 0 mm 2 mps 730 mmHg 81%
    23:00 +29°C° 0 mm 2 mps 730 mmHg 83%
    Show more